Location: Irma
(52.9170°N, 111.2330°W)
Time: 03:08:37
(UTC-06:00)

Amateur Radio Satellites - All Passes

Search period start: 27 April 2015 02:38
Search period end: 28 April 2015 02:38
Location: Irma, 52.9170°N, 111.2330°W

Satellite Date Start Highest point End Downlink Frequencies (MHz)
Time Altitude Azimuth
DANDE 27 Apr 02:39:29 02:44:27 21° 52° (NE) 02:50:18 436.750
Gurwin Techsat 1B 27 Apr 02:49:50 02:53:29 19° 87° (E) 02:57:16 435.225
QB50P1 27 Apr 02:49:54 02:51:15 11° 308° (NW) 02:52:27 145.935-145.965
BEESAT 27 Apr 02:50:40 02:55:06 37° 264° (W) 02:59:32 436.000
SWISSCUBE 27 Apr 02:53:37 02:57:56 33° 265° (W) 03:02:15 437.505
MOZHAYETS 4 27 Apr 03:02:57 03:03:52 11° 50° (NE) 03:04:59
AIST 1 27 Apr 03:04:35 03:07:31 17° 299° (WNW) 03:10:21
Cosmos 2504 27 Apr 03:08:21 03:14:38 25° 282° (WNW) 03:20:23 435.465 / 435.565
Oscar 19 27 Apr 03:12:02 03:17:17 78° 104° (ESE) 03:22:30 437.125/150
STARS 27 Apr 03:12:19 03:16:40 63° 71° (ENE) 03:21:04 437.465
Cosmos 2491 27 Apr 03:31:10 03:34:45 12° 330° (NNW) 03:38:01 435.465 / 435.565
CUSAT 1 27 Apr 03:32:32 03:39:25 44° 65° (ENE) 03:47:16 437.405
Cosmos 2499 27 Apr 03:38:08 03:42:36 16° 41° (NE) 03:47:09 435.465 / 435.565
AIST 2 27 Apr 03:44:59 03:48:09 21° 117° (ESE) 03:51:26 435.215
ITAMSAT 1 27 Apr 03:50:04 03:55:12 58° 102° (ESE) 04:00:19 435.822/435.867
GONETS M04 27 Apr 03:53:52 04:02:44 69° 74° (ENE) 04:11:34
AO-7 27 Apr 03:58:02 04:03:17 18° 82° (E) 04:08:53 29.400- 29.500
KKS-1 27 Apr 03:58:17 04:02:25 36° 264° (W) 04:06:32 437.445
ITUPSAT 1 27 Apr 04:02:56 04:03:59 10° 279° (W) 04:04:45 437.325
AUBIESAT-1 27 Apr 04:08:21 04:09:12 11° 41° (NE) 04:10:13 437.475
BEESAT 3 27 Apr 04:08:28 04:12:35 85° 133° (SE) 04:16:45 437.485
BEESAT 2 27 Apr 04:11:50 04:15:59 79° 132° (SE) 04:20:10 435.950
DANDE 27 Apr 04:21:53 04:28:56 67° 72° (ENE) 04:37:21 436.750
JAS-2 27 Apr 04:26:35 04:31:41 24° 85° (E) 04:36:26 435.910
HORYU 2 27 Apr 04:28:23 04:32:15 27° 93° (E) 04:36:07 437.375
Gurwin Techsat 1B 27 Apr 04:28:51 04:34:12 82° 289° (WNW) 04:39:32 435.225
MOZHAYETS 4 27 Apr 04:35:40 04:40:11 52° 69° (ENE) 04:44:43
STARS 27 Apr 04:50:22 04:53:35 19° 271° (W) 04:56:43 437.465
Oscar 19 27 Apr 04:52:09 04:56:10 22° 304° (NW) 05:00:03 437.125/150
M-CUBED/EXP-1 PRIME 27 Apr 04:58:30 05:02:19 24° 53° (NE) 05:06:08 437.505
CUSAT 1 27 Apr 05:15:14 05:22:26 58° 264° (W) 05:30:31 437.405
AIST 2 27 Apr 05:22:04 05:26:21 73° 315° (NW) 05:30:41 435.215
O/OREOS (USA 219) 27 Apr 05:25:56 05:26:22 10° 23° (NNE) 05:26:53 437.305
STRAND 1 27 Apr 05:26:37 05:29:24 15° 51° (NE) 05:32:20 437.568
ITAMSAT 1 27 Apr 05:30:02 05:34:27 28° 301° (WNW) 05:38:47 435.822/435.867
Cosmos 2499 27 Apr 05:30:26 05:38:13 53° 69° (ENE) 05:45:26 435.465 / 435.565
AUBIESAT-1 27 Apr 05:38:30 05:42:59 41° 60° (ENE) 05:47:25 437.475
BEESAT 3 27 Apr 05:47:33 05:51:04 26° 334° (NNW) 05:54:35 437.485
AO-7 27 Apr 05:49:31 05:57:51 70° 106° (ESE) 06:06:11 29.400- 29.500
BEESAT 2 27 Apr 05:50:55 05:54:32 27° 333° (NNW) 05:58:08 435.950
GONETS M04 27 Apr 05:51:18 05:59:07 36° 277° (W) 06:06:45
HORYU 2 27 Apr 06:04:46 06:09:05 45° 293° (WNW) 06:13:22 437.375
DANDE 27 Apr 06:05:30 06:12:02 37° 270° (W) 06:19:27 436.750
PRISM 27 Apr 06:08:06 06:11:37 27° 63° (ENE) 06:15:11 437.425
Gurwin Techsat 1B 27 Apr 06:09:53 06:13:31 18° 307° (NW) 06:17:00 435.225
JAS-2 27 Apr 06:11:02 06:17:40 74° 290° (WNW) 06:23:28 435.910
MOZHAYETS 4 27 Apr 06:13:53 06:17:43 25° 269° (W) 06:21:30
CUBESAT XI-V 27 Apr 06:16:47 06:21:14 48° 68° (ENE) 06:25:42 437.345
M-CUBED/EXP-1 PRIME 27 Apr 06:31:55 06:36:46 72° 250° (WSW) 06:41:34 437.505
CUTE-I 27 Apr 06:52:10 06:56:21 23° 90° (E) 07:00:37 437.470
CUSAT 1 27 Apr 06:59:51 07:04:09 16° 282° (WNW) 07:08:16 437.405
AIST 2 27 Apr 07:02:07 07:05:37 23° 338° (NNW) 07:09:06 435.215
Cubesat XI-IV 27 Apr 07:02:08 07:06:39 28° 92° (E) 07:11:14 437.490
STRAND 1 27 Apr 07:02:45 07:07:49 69° 70° (ENE) 07:12:55 437.568
O/OREOS (USA 219) 27 Apr 07:03:16 07:07:19 31° 47° (NE) 07:11:21 437.305
AUBIESAT-1 27 Apr 07:13:19 07:17:47 37° 258° (WSW) 07:22:11 437.475
Cosmos 2499 27 Apr 07:23:57 07:31:16 42° 273° (W) 07:38:00 435.465 / 435.565
BEESAT 3 27 Apr 07:27:44 07:30:20 16° 357° (N) 07:32:55 437.485
BEESAT 2 27 Apr 07:31:13 07:33:53 16° 356° (N) 07:36:31 435.950
Cosmos 2491 27 Apr 07:34:31 07:39:28 16° 38° (NE) 07:44:45 435.465 / 435.565
AO-7 27 Apr 07:42:44 07:50:18 40° 309° (NW) 07:57:48 29.400- 29.500
PRISM 27 Apr 07:43:02 07:46:59 40° 262° (W) 07:50:55 437.425
CUBESAT XI-V 27 Apr 07:55:00 07:58:56 26° 268° (W) 08:02:48 437.345
JAS-2 27 Apr 07:57:01 08:01:41 20° 313° (NW) 08:05:52 435.910
M-CUBED/EXP-1 PRIME 27 Apr 08:10:16 08:12:28 13° 271° (W) 08:14:27 437.505
PCSat 27 Apr 08:27:29 08:32:04 30° 113° (ESE) 08:36:45 145.827
CUTE-I 27 Apr 08:31:39 08:36:57 67° 290° (WNW) 08:42:14 437.470
Cubesat XI-IV 27 Apr 08:41:54 08:47:07 56° 292° (WNW) 08:52:19 437.490
O/OREOS (USA 219) 27 Apr 08:42:35 08:46:56 46° 248° (WSW) 08:51:12 437.305
AIST 2 27 Apr 08:42:43 08:45:33 17° 2° (N) 08:48:22 435.215
STRAND 1 27 Apr 08:43:37 08:47:34 22° 271° (W) 08:51:25 437.568
BEESAT 3 27 Apr 09:06:27 09:09:41 22° 21° (NNE) 09:12:56 437.485
BEESAT 2 27 Apr 09:10:07 09:13:20 21° 20° (NNE) 09:16:34 435.950
GOMX 1 27 Apr 09:12:42 09:17:05 28° 92° (E) 09:21:41 467.674
SEEDS 27 Apr 09:13:46 09:16:11 15° 86° (E) 09:18:44 437.485
ANTELSAT 27 Apr 09:15:53 09:18:21 15° 53° (NE) 09:20:59 437.575/2403.000
CANX-2 27 Apr 09:24:31 09:27:59 24° 91° (E) 09:31:30 2200.000
AAUSAT CUBESAT 2 27 Apr 09:26:40 09:28:56 14° 86° (E) 09:31:19 437.432
HO-68 27 Apr 09:30:24 09:36:48 34° 93° (E) 09:43:16 435.675
Cosmos 2491 27 Apr 09:30:41 09:39:12 49° 67° (ENE) 09:47:45 435.465 / 435.565
CUTE 1.7 + AOD 2 27 Apr 09:33:17 09:36:54 26° 92° (E) 09:40:32 437.475
BRITE-PL 27 Apr 09:34:03 09:39:00 56° 100° (E) 09:44:19 437.365/2234.400
AO-7 27 Apr 09:36:14 09:41:01 17° 334° (NNW) 09:45:38 29.400- 29.500
DOVE 4 27 Apr 09:40:32 09:45:07 34° 94° (E) 09:49:55 437.250
NANOSAT C BR1 27 Apr 09:45:30 09:47:15 13° 54° (NE) 09:49:08 145.865
POPSAT HIP 1 27 Apr 09:49:14 09:51:15 14° 54° (NE) 09:53:25 437.405
CUBEBUG 2 27 Apr 09:59:40 10:02:34 16° 85° (E) 10:05:38 437.445
TIGRISAT 27 Apr 10:03:15 10:07:16 31° 63° (ENE) 10:11:24 435.000
BUGSAT 1 27 Apr 10:04:26 10:06:09 13° 55° (NE) 10:08:00 437.445
UNISAT 6 27 Apr 10:08:14 10:12:23 34° 64° (ENE) 10:16:39 437.425
PCSat 27 Apr 10:09:48 10:15:12 65° 315° (NW) 10:20:38 145.827
CINEMA 3 27 Apr 10:11:37 10:16:09 34° 94° (E) 10:20:46 145.822/145.860
CUTE-I 27 Apr 10:13:05 10:16:13 16° 310° (NW) 10:19:10 437.470
DUCHIFAT 1 27 Apr 10:17:08 10:20:19 22° 60° (ENE) 10:23:36 145.980
POLYITAN 1 27 Apr 10:18:16 10:21:35 23° 61° (ENE) 10:25:00 437.675
COMPASS 1 27 Apr 10:19:53 10:24:01 49° 99° (E) 10:28:06 437.405
UWE-3 27 Apr 10:21:35 10:25:04 21° 88° (E) 10:28:38 435.000/436.395/437.385
AIST 2 27 Apr 10:21:46 10:25:26 26° 25° (NNE) 10:29:04 435.215
Cubesat XI-IV 27 Apr 10:23:40 10:26:16 14° 313° (NW) 10:28:40 437.490
DELFI C3 27 Apr 10:25:00 10:27:59 20° 90° (E) 10:31:01 145.870
FUNcube-1 27 Apr 10:26:27 10:29:35 18° 87° (E) 10:32:49 145.935
UKube-1 27 Apr 10:30:48 10:31:29 10° 83° (E) 10:32:24 .
HUMSAT D 27 Apr 10:34:32 10:35:25 11° 82° (E) 10:36:32 437.325/437.525
QB50P1 27 Apr 10:35:14 10:38:56 30° 64° (ENE) 10:42:41 145.935-145.965
YUBILEINY 27 Apr 10:43:34 10:51:34 42° 86° (E) 10:59:40 435.215
BEESAT 3 27 Apr 10:44:16 10:48:24 67° 43° (NE) 10:52:28 437.485
Oscar 11 27 Apr 10:47:05 10:51:13 41° 97° (E) 10:55:21 145.826/435.025
BEESAT 2 27 Apr 10:48:03 10:52:11 63° 42° (NE) 10:56:16 435.950
SEEDS 27 Apr 10:48:18 10:52:35 76° 287° (WNW) 10:56:48 437.485
ANTELSAT 27 Apr 10:49:49 10:54:24 75° 73° (ENE) 10:59:07 437.575/2403.000
GOMX 1 27 Apr 10:50:31 10:55:28 55° 291° (WNW) 11:00:41 467.674
ZACube-1 27 Apr 10:52:03 10:56:07 30° 93° (E) 11:00:12 437.345
CANX-2 27 Apr 11:00:02 11:04:11 47° 291° (WNW) 11:08:17 2200.000
AAUSAT CUBESAT 2 27 Apr 11:00:55 11:05:09 77° 287° (WNW) 11:09:19 437.432
QB50P2 27 Apr 11:01:30 11:05:37 52° 69° (ENE) 11:09:48 145.880/145.840
VELOX 1 27 Apr 11:03:53 11:05:39 12° 84° (E) 11:07:37 145.980
50 SAT 27 Apr 11:04:18 11:05:57 12° 85° (E) 11:07:45 437.505
CUTE 1.7 + AOD 2 27 Apr 11:08:55 11:13:01 43° 292° (WNW) 11:17:02 437.475
BRITE-PL 27 Apr 11:13:02 11:17:19 29° 297° (WNW) 11:21:48 437.365/2234.400
HO-68 27 Apr 11:17:55 11:25:04 65° 295° (WNW) 11:32:08 435.675
DOVE 4 27 Apr 11:18:11 11:23:01 46° 293° (WNW) 11:28:00 437.250
NANOSAT C BR1 27 Apr 11:18:12 11:22:24 73° 73° (ENE) 11:26:40 145.865
AISAT 27 Apr 11:21:33 11:24:39 19° 89° (E) 11:27:51 437.250
POPSAT HIP 1 27 Apr 11:22:16 11:26:29 79° 75° (ENE) 11:30:46 437.405
DX 1 27 Apr 11:23:57 11:27:55 33° 96° (E) 11:31:55 434.975-435.025
AIST 1 27 Apr 11:26:00 11:29:53 33° 69° (ENE) 11:33:48
SO-50 27 Apr 11:27:05 11:30:20 19° 114° (ESE) 11:33:48 436.795
Cosmos 2491 27 Apr 11:27:47 11:36:16 52° 271° (W) 11:44:38 435.465 / 435.565
AO-7 27 Apr 11:28:04 11:30:24 11° 2° (N) 11:32:46 29.400- 29.500
CUBEBUG 2 27 Apr 11:35:07 11:39:57 84° 285° (WNW) 11:44:45 437.445
BUGSAT 1 27 Apr 11:36:59 11:41:00 80° 74° (ENE) 11:45:05 437.445
TIGRISAT 27 Apr 11:39:31 11:43:54 43° 263° (W) 11:48:22 435.000
UNISAT 6 27 Apr 11:44:50 11:49:09 38° 264° (W) 11:53:31 437.425
CINEMA 3 27 Apr 11:48:45 11:53:26 43° 293° (WNW) 11:58:10 145.822/145.860
DUCHIFAT 1 27 Apr 11:51:42 11:55:50 56° 259° (W) 12:00:02 145.980
POLYITAN 1 27 Apr 11:53:05 11:57:14 53° 260° (W) 12:01:27 437.675
PCSat 27 Apr 11:55:11 11:59:37 24° 338° (NNW) 12:04:02 145.827
COMPASS 1 27 Apr 11:56:03 11:59:28 24° 298° (WNW) 12:02:48 437.405
UWE-3 27 Apr 11:57:22 12:02:04 65° 288° (WNW) 12:06:42 435.000/436.395/437.385
DELFI C3 27 Apr 11:59:29 12:03:27 52° 290° (WNW) 12:07:21 145.870
AIST 2 27 Apr 12:00:13 12:04:31 88° 228° (SW) 12:08:45 435.215
FUNcube-1 27 Apr 12:01:50 12:06:27 71° 288° (WNW) 12:11:01 145.935
UKube-1 27 Apr 12:04:09 12:08:31 74° 104° (ESE) 12:12:51 .
ESTCUBE 1 27 Apr 12:06:39 12:10:29 27° 93° (E) 12:14:22 437.505/2401.250
HUMSAT D 27 Apr 12:07:41 12:12:04 75° 104° (ESE) 12:16:23 437.325/437.525
Cosmos 2504 27 Apr 12:09:33 12:14:29 17° 72° (ENE) 12:19:44 435.465 / 435.565
QB50P1 27 Apr 12:10:48 12:14:45 37° 263° (W) 12:18:42 145.935-145.965
SPROUT 27 Apr 12:18:00 12:18:29 10° 82° (E) 12:19:13 437.525
BEESAT 3 27 Apr 12:22:52 12:26:03 21° 243° (WSW) 12:29:08 437.485
Oscar 11 27 Apr 12:23:30 12:27:18 29° 296° (WNW) 12:31:01 145.826/435.025
SEEDS 27 Apr 12:25:42 12:27:43 13° 306° (NW) 12:29:35 437.485
BEESAT 2 27 Apr 12:26:40 12:29:59 23° 242° (WSW) 12:33:14 435.950
ZACube-1 27 Apr 12:28:14 12:32:37 43° 293° (WNW) 12:36:57 437.345
ANTELSAT 27 Apr 12:28:39 12:31:49 17° 273° (W) 12:34:53 437.575/2403.000
GOMX 1 27 Apr 12:30:36 12:32:44 12° 309° (NW) 12:34:45 467.674
50 SAT 27 Apr 12:37:20 12:41:25 86° 290° (WNW) 12:45:28 437.505
AAUSAT CUBESAT 2 27 Apr 12:38:08 12:40:07 13° 305° (NW) 12:41:58 437.432
CUBEBUG 1 27 Apr 12:38:17 12:42:31 46° 99° (E) 12:46:45 437.445
QB50P2 27 Apr 12:38:33 12:41:50 21° 269° (W) 12:45:06 145.880/145.840
VELOX 1 27 Apr 12:38:33 12:43:01 83° 105° (ESE) 12:47:29 145.980
YUBILEINY 27 Apr 12:39:28 12:48:12 60° 289° (WNW) 12:56:55 435.215
Gurwin Techsat 1B 27 Apr 12:40:42 12:42:43 12° 46° (NE) 12:44:56 435.225
ISS 27 Apr 12:45:41 12:48:16 22° 149° (SSE) 12:50:54 145.825
NANOSAT C BR1 27 Apr 12:56:11 12:58:50 16° 273° (W) 13:01:21 145.865
Oscar 19 27 Apr 12:56:23 13:01:05 37° 63° (ENE) 13:05:52 437.125/150
AISAT 27 Apr 12:57:17 13:01:43 66° 290° (WNW) 13:06:09 437.250
DOVE 4 27 Apr 12:58:41 12:59:46 10° 312° (NW) 13:00:37 437.250
DX 1 27 Apr 13:00:12 13:04:12 35° 295° (WNW) 13:08:10 434.975-435.025
POPSAT HIP 1 27 Apr 13:00:35 13:03:00 14° 274° (W) 13:05:16 437.405
AIST 1 27 Apr 13:03:45 13:07:32 31° 269° (W) 13:11:17
SO-50 27 Apr 13:05:34 13:10:19 88° 314° (NW) 13:15:15 436.795
HO-68 27 Apr 13:06:33 13:11:40 21° 317° (NW) 13:16:34 435.675
JAS-2 27 Apr 13:06:40 13:07:18 10° 32° (NNE) 13:08:13 435.910
CUBEBUG 2 27 Apr 13:12:57 13:16:01 17° 305° (NW) 13:18:56 437.445
TISAT 1 27 Apr 13:13:22 13:16:58 26° 93° (E) 13:20:36 437.305
AO-7 27 Apr 13:14:51 13:19:56 19° 30° (NNE) 13:25:13 29.400- 29.500
BUGSAT 1 27 Apr 13:15:06 13:17:07 13° 274° (W) 13:19:00 437.445
Cosmos 2491 27 Apr 13:27:29 13:31:06 13° 294° (WNW) 13:34:12 435.465 / 435.565
RS-15 27 Apr 13:34:50 13:42:27 24° 102° (ESE) 13:50:38 29.354- 29.394
UWE-3 27 Apr 13:35:33 13:37:48 13° 308° (NW) 13:39:52 435.000/436.395/437.385
ITAMSAT 1 27 Apr 13:35:50 13:40:15 30° 60° (ENE) 13:44:45 435.822/435.867
FUNcube-1 27 Apr 13:39:40 13:42:03 14° 306° (NW) 13:44:18 145.935
AIST 2 27 Apr 13:39:58 13:42:32 15° 246° (WSW) 13:44:58 435.215
PCSat 27 Apr 13:41:08 13:44:53 18° 3° (N) 13:48:38 145.827
UKube-1 27 Apr 13:41:11 13:44:14 18° 303° (WNW) 13:47:10 .
ESTCUBE 1 27 Apr 13:43:16 13:47:34 44° 293° (WNW) 13:51:49 437.505/2401.250
HUMSAT D 27 Apr 13:44:20 13:47:21 18° 302° (WNW) 13:50:16 437.325/437.525
SPROUT 27 Apr 13:51:08 13:55:29 73° 104° (ESE) 13:59:50 437.525
Cosmos 2504 27 Apr 13:57:42 14:06:24 64° 93° (E) 14:14:54 435.465 / 435.565
HORYU 2 27 Apr 14:00:02 14:00:52 11° 49° (NE) 14:01:52 437.375
50 SAT 27 Apr 14:13:33 14:15:39 14° 304° (NW) 14:17:37 437.505
CUBEBUG 1 27 Apr 14:15:01 14:18:43 27° 298° (WNW) 14:22:21 437.445
ITUPSAT 1 27 Apr 14:15:18 14:18:54 21° 90° (E) 14:22:35 437.325
VELOX 1 27 Apr 14:16:08 14:19:04 17° 304° (NW) 14:21:54 145.980
Gurwin Techsat 1B 27 Apr 14:16:32 14:21:39 51° 67° (ENE) 14:26:49 435.225
ISS 27 Apr 14:21:01 14:24:15 59° 168° (SSE) 14:27:29 145.825
Oscar 19 27 Apr 14:35:31 14:40:25 42° 263° (W) 14:45:22 437.125/150
AISAT 27 Apr 14:35:36 14:37:34 13° 308° (NW) 14:39:24 437.250
YUBILEINY 27 Apr 14:41:20 14:47:25 19° 317° (NW) 14:53:14 435.215
JAS-2 27 Apr 14:43:56 14:50:19 30° 55° (NE) 14:56:27 435.910
BEESAT 27 Apr 14:44:21 14:48:46 37° 96° (E) 14:53:12 436.000
SWISSCUBE 27 Apr 14:47:11 14:51:42 42° 98° (E) 14:56:13 437.505
SO-50 27 Apr 14:47:13 14:51:29 30° 337° (NNW) 14:55:49 436.795
TISAT 1 27 Apr 14:48:52 14:52:55 42° 293° (WNW) 14:56:56 437.305
AO-7 27 Apr 15:03:10 15:10:54 47° 55° (NE) 15:18:43 29.400- 29.500
GONETS M04 27 Apr 15:10:50 15:15:30 16° 70° (ENE) 15:20:38
ITAMSAT 1 27 Apr 15:14:29 15:19:33 54° 259° (W) 15:24:39 435.822/435.867
PCSat 27 Apr 15:25:16 15:30:00 29° 28° (NNE) 15:34:46 145.827
SPROUT 27 Apr 15:28:06 15:31:08 18° 302° (WNW) 15:34:04 437.525
HORYU 2 27 Apr 15:32:14 15:36:36 52° 69° (ENE) 15:41:02 437.375
RS-15 27 Apr 15:42:12 15:53:00 74° 126° (SE) 16:04:13 29.354- 29.394
KKS-1 27 Apr 15:43:03 15:46:59 29° 94° (E) 15:50:56 437.445
Cosmos 2504 27 Apr 15:52:02 16:00:21 41° 296° (WNW) 16:08:22 435.465 / 435.565
ITUPSAT 1 27 Apr 15:52:31 15:57:16 63° 290° (WNW) 16:01:57 437.325
Gurwin Techsat 1B 27 Apr 15:57:13 16:01:55 31° 267° (W) 16:06:35 435.225
ISS 27 Apr 15:57:14 16:00:29 67° 188° (S) 16:03:44 145.825
BEESAT 27 Apr 16:22:15 16:26:39 37° 296° (WNW) 16:30:59 436.000
SWISSCUBE 27 Apr 16:25:14 16:29:30 33° 297° (WNW) 16:33:43 437.505
JAS-2 27 Apr 16:26:52 16:34:45 87° 254° (WSW) 16:42:10 435.910
SO-50 27 Apr 16:29:40 16:33:24 21° 1° (N) 16:37:11 436.795
STARS 27 Apr 16:32:18 16:36:41 53° 100° (E) 16:41:05 437.465
CUTE-I 27 Apr 16:42:57 16:45:53 15° 50° (NE) 16:48:58 437.470
CUSAT 1 27 Apr 16:49:40 16:52:46 20° 81° (E) 16:56:39 437.405
Cubesat XI-IV 27 Apr 16:52:38 16:56:03 18° 52° (NE) 16:59:35 437.490
AO-7 27 Apr 16:55:29 17:03:38 58° 257° (WSW) 17:11:49 29.400- 29.500
GONETS M04 27 Apr 17:02:05 17:10:40 63° 93° (E) 17:19:23
PCSat 27 Apr 17:08:38 17:14:06 89° 252° (WSW) 17:19:34 145.827
HORYU 2 27 Apr 17:09:54 17:13:34 24° 268° (W) 17:17:12 437.375
KKS-1 27 Apr 17:19:31 17:23:47 42° 293° (WNW) 17:28:00 437.445
ITUPSAT 1 27 Apr 17:32:05 17:34:21 13° 309° (NW) 17:36:27 437.325
ISS 27 Apr 17:33:40 17:36:34 29° 207° (SSW) 17:39:27 145.825
DANDE 27 Apr 17:42:19 17:45:57 38° 90° (E) 17:50:48 436.750
Cosmos 2504 27 Apr 17:52:31 17:56:46 14° 324° (NW) 18:00:38 435.465 / 435.565
RS-15 27 Apr 17:55:19 18:06:07 56° 335° (NNW) 18:17:20 29.354- 29.394
MOZHAYETS 4 27 Apr 18:01:43 18:06:15 54° 100° (E) 18:10:45
STARS 27 Apr 18:09:16 18:12:54 24° 300° (WNW) 18:16:28 437.465
SO-50 27 Apr 18:10:54 18:15:18 31° 25° (NNE) 18:19:45 436.795
Cosmos 2499 27 Apr 18:13:38 18:21:24 38° 85° (E) 18:29:00 435.465 / 435.565
JAS-2 27 Apr 18:14:34 18:20:45 24° 275° (W) 18:26:30 435.910
CUTE-I 27 Apr 18:19:52 18:25:07 66° 70° (ENE) 18:30:25 437.470
HO-68 27 Apr 18:21:38 18:25:43 17° 37° (NE) 18:29:59 435.675
Cubesat XI-IV 27 Apr 18:30:06 18:35:26 79° 73° (ENE) 18:40:48 437.490
CUSAT 1 27 Apr 18:30:26 18:34:40 64° 289° (WNW) 18:40:25 437.405
YUBILEINY 27 Apr 18:50:31 18:51:53 10° 25° (NNE) 18:53:33 435.215
AUBIESAT-1 27 Apr 18:51:53 18:51:55 10° 87° (E) 18:52:10 437.475
PCSat 27 Apr 18:53:02 18:56:54 20° 251° (WSW) 19:00:37 145.827
VERMONT LUNAR 27 Apr 18:54:09 18:54:51 10° 180° (S) 18:55:34 437.305
AO-7 27 Apr 18:54:16 18:58:36 14° 282° (WNW) 19:02:28 29.400- 29.500
GONETS M04 27 Apr 18:59:51 19:08:05 41° 298° (WNW) 19:16:19
STRAND 1 27 Apr 19:08:26 19:11:09 15° 84° (E) 19:14:03 437.568
BRITE-PL 27 Apr 19:15:01 19:17:53 18° 57° (ENE) 19:20:58 437.365/2234.400
DOVE 4 27 Apr 19:18:34 19:19:52 11° 49° (NE) 19:21:21 437.250
PRISM 27 Apr 19:19:54 19:22:44 18° 90° (E) 19:25:40 437.425
DANDE 27 Apr 19:25:42 19:29:25 30° 301° (WNW) 19:34:09 436.750
MOZHAYETS 4 27 Apr 19:39:27 19:43:13 25° 299° (WNW) 19:46:56
M-CUBED/EXP-1 PRIME 27 Apr 19:43:20 19:47:17 35° 101° (ESE) 19:50:57 437.505
COMPASS 1 27 Apr 19:44:09 19:45:59 13° 55° (NE) 19:47:57 437.405
CUBESAT XI-V 27 Apr 19:44:29 19:49:00 52° 99° (E) 19:53:31 437.345
PHONESAT 2.4 27 Apr 19:44:42 19:46:00 12° 178° (S) 19:47:19 2401.200-2431.200
CINEMA 3 27 Apr 19:46:03 19:47:27 11° 50° (NE) 19:49:03 145.822/145.860
SO-50 27 Apr 19:51:25 19:56:25 88° 230° (SW) 20:01:22 436.795
CUTE-I 27 Apr 20:01:26 20:05:43 24° 270° (W) 20:09:55 437.470
HO-68 27 Apr 20:05:07 20:11:57 49° 60° (ENE) 20:18:51 435.675
Cosmos 2499 27 Apr 20:05:24 20:14:13 67° 287° (WNW) 20:22:37 435.465 / 435.565
RS-15 27 Apr 20:10:23 20:21:03 47° 8° (N) 20:32:13 29.354- 29.394
SEEDS 27 Apr 20:11:22 20:14:48 24° 62° (ENE) 20:18:18 437.485
Cubesat XI-IV 27 Apr 20:12:20 20:16:15 20° 273° (W) 20:20:01 437.490
Oscar 11 27 Apr 20:14:38 20:16:21 12° 53° (NE) 20:18:14 145.826/435.025
CUSAT 1 27 Apr 20:16:24 20:19:08 14° 318° (NW) 20:22:03 437.405
AAUSAT CUBESAT 2 27 Apr 20:23:01 20:26:19 23° 62° (ENE) 20:29:42 437.432
CANX-2 27 Apr 20:23:05 20:27:03 37° 66° (ENE) 20:31:03 2200.000
AUBIESAT-1 27 Apr 20:23:25 20:27:42 75° 109° (ESE) 20:31:36 437.475
GOMX 1 27 Apr 20:27:17 20:31:25 48° 68° (ENE) 20:35:52 467.674
CUTE 1.7 + AOD 2 27 Apr 20:31:46 20:35:48 40° 67° (ENE) 20:39:53 437.475
YUBILEINY 27 Apr 20:45:13 20:52:42 31° 56° (NE) 21:00:16 435.215
STRAND 1 27 Apr 20:46:07 20:51:15 83° 105° (ESE) 20:56:23 437.568
BRITE-PL 27 Apr 20:51:44 20:55:56 72° 257° (WSW) 21:00:25 437.365/2234.400
DOVE 4 27 Apr 20:52:23 20:56:40 57° 70° (ENE) 21:01:16 437.250
DX 1 27 Apr 20:52:32 20:54:00 12° 51° (NE) 20:55:37 434.975-435.025
PRISM 27 Apr 20:54:33 20:58:37 58° 290° (WNW) 21:02:37 437.425
CUBEBUG 2 27 Apr 21:03:36 21:07:20 27° 61° (ENE) 21:11:13 437.445
GONETS M04 27 Apr 21:03:58 21:08:15 14° 327° (NNW) 21:12:14
COMPASS 1 27 Apr 21:16:45 21:20:59 75° 74° (ENE) 21:25:16 437.405
DELFI C3 27 Apr 21:18:11 21:21:42 28° 65° (ENE) 21:25:15 145.870
M-CUBED/EXP-1 PRIME 27 Apr 21:18:12 21:22:09 33° 303° (WNW) 21:25:45 437.505
CINEMA 3 27 Apr 21:19:20 21:23:42 57° 70° (ENE) 21:28:20 145.822/145.860
CUBESAT XI-V 27 Apr 21:22:23 21:26:13 26° 299° (WNW) 21:29:59 437.345
UWE-3 27 Apr 21:24:27 21:28:25 33° 64° (ENE) 21:32:33 435.000/436.395/437.385
FUNcube-1 27 Apr 21:27:53 21:31:41 29° 63° (ENE) 21:35:37 145.935
UKube-1 27 Apr 21:30:07 21:33:21 21° 59° (ENE) 21:36:41 .
HUMSAT D 27 Apr 21:31:17 21:34:11 18° 58° (ENE) 21:37:10 437.325/437.525
SO-50 27 Apr 21:32:54 21:36:24 19° 246° (WSW) 21:39:45 436.795
ESTCUBE 1 27 Apr 21:39:48 21:40:21 10° 50° (NE) 21:41:04 437.505/2401.250
SEEDS 27 Apr 21:46:11 21:50:23 50° 261° (W) 21:54:34 437.485
Oscar 11 27 Apr 21:47:28 21:51:49 68° 71° (ENE) 21:56:10 145.826/435.025
Cosmos 2504 27 Apr 21:51:57 21:54:06 11° 30° (NNE) 21:56:30 435.465 / 435.565
HO-68 27 Apr 21:52:52 21:59:48 47° 262° (W) 22:06:43 435.675
ZACube-1 27 Apr 21:53:43 21:57:57 47° 68° (ENE) 22:02:21 437.345
50 SAT 27 Apr 21:55:05 21:57:50 18° 59° (ENE) 22:00:42 437.505
AAUSAT CUBESAT 2 27 Apr 21:57:32 22:01:42 52° 261° (W) 22:05:51 437.432
AUBIESAT-1 27 Apr 21:58:57 22:02:00 19° 310° (NW) 22:04:47 437.475
CANX-2 27 Apr 21:59:11 22:03:03 31° 266° (W) 22:06:54 2200.000
Cosmos 2499 27 Apr 22:02:51 22:09:16 21° 312° (NW) 22:15:13 435.465 / 435.565
GOMX 1 27 Apr 22:06:21 22:09:55 24° 270° (W) 22:13:35 467.674
CUBEBUG 1 27 Apr 22:06:35 22:08:47 14° 55° (NE) 22:11:09 437.445
VELOX 1 27 Apr 22:06:41 22:10:12 24° 61° (ENE) 22:13:48 145.980
CUTE 1.7 + AOD 2 27 Apr 22:08:06 22:11:51 28° 267° (W) 22:15:36 437.475
RS-15 27 Apr 22:24:05 22:35:28 73° 38° (NE) 22:47:24 29.354- 29.394
AISAT 27 Apr 22:24:59 22:28:57 34° 64° (ENE) 22:32:59 437.250
DX 1 27 Apr 22:25:12 22:29:29 63° 71° (ENE) 22:33:49 434.975-435.025
STRAND 1 27 Apr 22:26:11 22:29:56 21° 305° (NW) 22:33:36 437.568
DOVE 4 27 Apr 22:31:32 22:34:55 21° 272° (W) 22:38:23 437.250
PRISM 27 Apr 22:32:51 22:33:17 10° 309° (NW) 22:33:33 437.425
ANTELSAT 27 Apr 22:37:58 22:39:27 12° 82° (E) 22:41:10 437.575/2403.000
CUBEBUG 2 27 Apr 22:39:27 22:43:48 50° 262° (W) 22:48:19 437.445
Cosmos 2491 27 Apr 22:39:53 22:47:53 44° 87° (E) 22:56:04 435.465 / 435.565
YUBILEINY 27 Apr 22:41:55 22:50:45 84° 261° (W) 22:59:28 435.215
DELFI C3 27 Apr 22:52:56 22:56:46 37° 264° (W) 23:00:35 145.870
COMPASS 1 27 Apr 22:54:38 22:57:15 15° 273° (W) 22:59:44 437.405
CINEMA 3 27 Apr 22:57:48 23:01:20 22° 271° (W) 23:04:56 145.822/145.860
O/OREOS (USA 219) 27 Apr 23:00:19 23:04:49 61° 115° (ESE) 23:09:21 437.305
UWE-3 27 Apr 23:00:45 23:04:55 38° 264° (W) 23:09:12 435.000/436.395/437.385
FUNcube-1 27 Apr 23:03:39 23:07:53 43° 263° (W) 23:12:13 145.935
UKube-1 27 Apr 23:04:54 23:09:10 60° 258° (WSW) 23:13:29 .
HUMSAT D 27 Apr 23:05:12 23:09:28 73° 257° (WSW) 23:13:49 437.325/437.525
ESTCUBE 1 27 Apr 23:11:57 23:16:19 52° 69° (ENE) 23:20:43 437.505/2401.250
SPROUT 27 Apr 23:16:45 23:19:43 19° 58° (ENE) 23:22:46 437.525
TIGRISAT 27 Apr 23:25:10 23:29:15 28° 93° (E) 23:33:19 435.000
Oscar 11 27 Apr 23:25:30 23:28:30 17° 272° (W) 23:31:23 145.826/435.025
50 SAT 27 Apr 23:28:15 23:32:15 64° 258° (WSW) 23:36:18 437.505
UNISAT 6 27 Apr 23:30:31 23:34:46 32° 94° (E) 23:38:58 437.425
ZACube-1 27 Apr 23:30:51 23:34:35 25° 269° (W) 23:38:20 437.345
DUCHIFAT 1 27 Apr 23:31:17 23:33:58 16° 88° (E) 23:36:44 145.980
POLYITAN 1 27 Apr 23:33:11 23:36:06 18° 88° (E) 23:39:06 437.675
CUBEBUG 1 27 Apr 23:40:13 23:44:32 82° 74° (ENE) 23:48:54 437.445
VELOX 1 27 Apr 23:42:13 23:46:31 52° 259° (W) 23:50:52 145.980
Cosmos 2504 27 Apr 23:43:34 23:50:53 35° 60° (ENE) 23:57:50 435.465 / 435.565
QB50P1 27 Apr 23:49:52 23:53:22 24° 92° (E) 23:56:55 145.935-145.965
ITUPSAT 1 27 Apr 23:54:43 23:55:23 10° 47° (NE) 23:56:15 437.325
AISAT 28 Apr 00:01:31 00:05:34 34° 264° (W) 00:09:37 437.250
DX 1 28 Apr 00:03:05 00:06:11 19° 271° (W) 00:09:12 434.975-435.025
AIST 1 28 Apr 00:03:40 00:05:56 15° 84° (E) 00:08:21
TISAT 1 28 Apr 00:11:14 00:15:11 43° 68° (ENE) 00:19:13 437.305
ANTELSAT 28 Apr 00:12:27 00:17:13 73° 104° (ESE) 00:21:53 437.575/2403.000
QB50P2 28 Apr 00:16:32 00:20:39 42° 98° (E) 00:24:46 145.880/145.840
BEESAT 28 Apr 00:21:21 00:24:13 16° 54° (NE) 00:27:13 436.000
SWISSCUBE 28 Apr 00:23:59 00:27:06 18° 55° (NE) 00:30:21 437.505
NANOSAT C BR1 28 Apr 00:32:50 00:37:05 58° 101° (ESE) 00:41:19 145.865
Cosmos 2491 28 Apr 00:36:02 00:44:38 57° 290° (WNW) 00:53:18 435.465 / 435.565
RS-15 28 Apr 00:36:47 00:47:37 50° 244° (WSW) 00:58:47 29.354- 29.394
POPSAT HIP 1 28 Apr 00:37:10 00:41:28 65° 102° (ESE) 00:45:45 437.405
YUBILEINY 28 Apr 00:39:53 00:46:25 23° 284° (WNW) 00:52:38 435.215
O/OREOS (USA 219) 28 Apr 00:40:44 00:44:38 26° 316° (NW) 00:48:28 437.305
HUMSAT D 28 Apr 00:45:26 00:46:08 10° 278° (W) 00:46:36 437.325/437.525
BUGSAT 1 28 Apr 00:48:26 00:52:33 60° 101° (ESE) 00:56:42 437.445
ESTCUBE 1 28 Apr 00:49:50 00:53:30 24° 269° (W) 00:57:07 437.505/2401.250
SPROUT 28 Apr 00:51:07 00:55:24 69° 258° (WSW) 00:59:43 437.525
TIGRISAT 28 Apr 01:01:39 01:06:12 46° 292° (WNW) 01:10:40 435.000
DUCHIFAT 1 28 Apr 01:06:01 01:10:18 71° 289° (WNW) 01:14:35 145.980
UNISAT 6 28 Apr 01:07:11 01:11:39 41° 294° (WNW) 01:16:02 437.425
POLYITAN 1 28 Apr 01:08:10 01:12:29 66° 288° (WNW) 01:16:46 437.675
GONETS M04 28 Apr 01:08:29 01:12:59 15° 35° (NE) 01:17:49
KKS-1 28 Apr 01:14:29 01:15:27 11° 50° (NE) 01:16:35 437.445
CUBEBUG 1 28 Apr 01:19:07 01:21:34 14° 274° (W) 01:23:52 437.445
QB50P1 28 Apr 01:25:20 01:29:29 47° 292° (WNW) 01:33:36 145.935-145.965
ITUPSAT 1 28 Apr 01:27:42 01:32:17 48° 67° (ENE) 01:36:54 437.325
CUSAT 1 28 Apr 01:35:34 01:38:44 13° 41° (NE) 01:42:24 437.405
Cosmos 2504 28 Apr 01:36:58 01:45:04 68° 265° (W) 01:52:32 435.465 / 435.565
AIST 1 28 Apr 01:38:47 01:43:05 75° 282° (WNW) 01:47:23
TISAT 1 28 Apr 01:47:38 01:51:10 25° 267° (W) 01:54:41 437.305
ANTELSAT 28 Apr 01:50:00 01:53:32 21° 302° (WNW) 01:56:58 437.575/2403.000
QB50P2 28 Apr 01:52:43 01:56:25 28° 297° (WNW) 02:00:04 145.880/145.840
BEESAT 28 Apr 01:56:38 02:01:25 82° 73° (ENE) 02:06:15 436.000
SWISSCUBE 28 Apr 01:59:37 02:04:25 88° 257° (WSW) 02:09:14 437.505
STARS 28 Apr 02:00:40 02:03:29 17° 56° (NE) 02:06:24 437.465
NANOSAT C BR1 28 Apr 02:09:19 02:12:36 21° 300° (WNW) 02:15:50 145.865
POPSAT HIP 1 28 Apr 02:13:48 02:16:59 20° 301° (WNW) 02:20:05 437.405
BEESAT 3 28 Apr 02:21:55 02:24:25 16° 115° (ESE) 02:27:02 437.485
BUGSAT 1 28 Apr 02:24:37 02:27:43 20° 300° (WNW) 02:30:45 437.445
BEESAT 2 28 Apr 02:26:50 02:29:12 15° 114° (ESE) 02:31:43 435.950
Gurwin Techsat 1B 28 Apr 02:28:14 02:30:21 13° 81° (E) 02:32:43 435.225
